Weather History for Eastsound, WA

Change the Weather History Date:

Friday, February 21, 2014

  Actual Average (KBLI) Record (KBLI)
Temperature  
Mean Temperature 36 °F 41 °F  
Max Temperature 41 °F 49 °F 61 °F (1958)
Min Temperature 32 °F 33 °F 23 °F (1952)
Degree Days  
Heating Degree Days 28 24  
Month to date heating degree days 515  
Cooling Degree Days 0 0  
Month to date cooling degree days 0  
Year to date cooling degree days 0  
Moisture  
Dew Point 30 °F    
Average Humidity 69    
Maximum Humidity 93    
Minimum Humidity 53    
Precipitation  
Precipitation 0.00 in 0.10 in 1.65 in (2002)
Month to date precipitation 2.30  
Year to date precipitation 6.97  
Sea Level Pressure  
Sea Level Pressure 30.24 in    
Wind  
Wind Speed 5 mph (NNW)    
Max Wind Speed 10 mph    
Max Gust Speed -    
Visibility 10 miles    
Events      
T = Trace of Precipitation, MM = Missing Value Source: NWS Daily Summary

Daily Weather History Graph

Daily Weather History Graph

Search for Another Location

Airport:

Trip Planner

Search our weather history database for the weather conditions in past years. The results will help you decide how hot, cold, wet, or windy it might be!

Date:

Astronomy

Feb. 21, 2014 Rise Set
Actual Time 7:08 AM PST 5:42 PM PST
Civil Twilight 6:36 AM PST 6:14 PM PST
Nautical Twilight 5:59 AM PST 6:51 PM PST
Astronomical Twilight 5:23 AM PST 7:27 PM PST
Moon 12:13 AM PST (2/21) 10:03 AM PST (2/21)
Length of Visible Light 11h 38m
Length of Day
10h 34m
Waning Gibbous, 59% of the Moon is Illuminated
Feb 21
Waning Gibbous
Feb 22
Last Quarter
Mar 1
New
Mar 8
First Quarter
Mar 16
Full

Hourly Weather History & Observations

Time (PST) Temp. Windchill Dew Point Humidity Pressure Visibility Wind Dir Wind Speed Gust Speed Precip Events Conditions
12:15 AM 41.0 °F 37.1 °F 35.6 °F 81% 30.16 in 10.0 mi WNW 5.8 mph - N/A   Overcast
12:35 AM 41.0 °F 36.4 °F 33.8 °F 76% 30.17 in 10.0 mi NNW 6.9 mph - N/A   Overcast
12:55 AM 41.0 °F 36.4 °F 32.0 °F 70% 30.18 in 10.0 mi NNW 6.9 mph - N/A   Overcast
1:15 AM 41.0 °F 37.1 °F 32.0 °F 70% 30.18 in 10.0 mi NNW 5.8 mph - N/A   Mostly Cloudy
1:35 AM 41.0 °F 36.4 °F 32.0 °F 70% 30.19 in 10.0 mi NW 6.9 mph - N/A   Mostly Cloudy
1:55 AM 41.0 °F 35.8 °F 32.0 °F 70% 30.20 in 10.0 mi NW 8.1 mph - N/A   Mostly Cloudy
2:15 AM 41.0 °F 35.2 °F 32.0 °F 70% 30.20 in 10.0 mi NNW 9.2 mph - N/A   Mostly Cloudy
2:35 AM 41.0 °F 37.1 °F 32.0 °F 70% 30.20 in 10.0 mi NNW 5.8 mph - N/A   Mostly Cloudy
2:55 AM 41.0 °F 36.4 °F 32.0 °F 70% 30.20 in 10.0 mi NW 6.9 mph - N/A   Mostly Cloudy
3:15 AM 41.0 °F 39.0 °F 32.0 °F 70% 30.20 in 10.0 mi NW 3.5 mph - N/A   Mostly Cloudy
3:35 AM 41.0 °F 36.4 °F 30.2 °F 65% 30.21 in 10.0 mi NNW 6.9 mph - N/A   Overcast
3:55 AM 41.0 °F 38.0 °F 32.0 °F 70% 30.21 in 10.0 mi SW 4.6 mph - N/A   Overcast
4:15 AM 39.2 °F - 32.0 °F 75% 30.22 in 10.0 mi Calm Calm - N/A   Overcast
4:35 AM 39.2 °F 37.0 °F 32.0 °F 75% 30.22 in 10.0 mi SW 3.5 mph - N/A   Mostly Cloudy
4:55 AM 39.2 °F - 32.0 °F 75% 30.22 in 10.0 mi Calm Calm - N/A   Mostly Cloudy
5:15 AM 37.4 °F - 32.0 °F 81% 30.23 in 10.0 mi Calm Calm - N/A   Mostly Cloudy
5:35 AM 37.4 °F 32.8 °F 32.0 °F 81% 30.23 in 10.0 mi SSW 5.8 mph - N/A   Overcast
5:55 AM 39.2 °F - 32.0 °F 75% 30.24 in 10.0 mi Calm Calm - N/A   Mostly Cloudy
6:15 AM 39.2 °F 37.0 °F 30.2 °F 70% 30.23 in 10.0 mi NNW 3.5 mph - N/A   Mostly Cloudy
6:35 AM 39.2 °F 35.0 °F 30.2 °F 70% 30.24 in 10.0 mi NW 5.8 mph - N/A   Mostly Cloudy
6:55 AM 39.2 °F 35.0 °F 28.4 °F 65% 30.24 in 10.0 mi WNW 5.8 mph - N/A   Partly Cloudy
7:15 AM 39.2 °F 37.0 °F 28.4 °F 65% 30.24 in 10.0 mi NW 3.5 mph - N/A   Clear
7:35 AM 39.2 °F - 30.2 °F 70% 30.24 in 10.0 mi Calm Calm - N/A   Clear
7:55 AM 39.2 °F - 28.4 °F 65% 30.25 in 10.0 mi Calm Calm - N/A   Partly Cloudy
8:15 AM 39.2 °F - 30.2 °F 70% 30.25 in 10.0 mi Calm Calm - N/A   Clear
8:35 AM 39.2 °F - 32.0 °F 75% 30.26 in 10.0 mi Calm Calm - N/A   Clear
8:55 AM 39.2 °F - 32.0 °F 75% 30.26 in 10.0 mi Calm Calm - N/A   Partly Cloudy
9:15 AM 41.0 °F 37.1 °F 28.4 °F 61% 30.26 in 10.0 mi NW 5.8 mph - N/A   Mostly Cloudy
9:35 AM 41.0 °F 38.0 °F 28.4 °F 61% 30.27 in 10.0 mi WNW 4.6 mph - N/A   Scattered Clouds
9:55 AM 41.0 °F 36.4 °F 28.4 °F 61% 30.27 in 10.0 mi NW 6.9 mph - N/A   Partly Cloudy
10:15 AM 41.0 °F 36.4 °F 28.4 °F 61% 30.28 in 10.0 mi NNW 6.9 mph - N/A   Scattered Clouds
10:35 AM 41.0 °F 35.8 °F 28.4 °F 61% 30.28 in 10.0 mi NNW 8.1 mph - N/A   Partly Cloudy
10:55 AM 41.0 °F 36.4 °F 26.6 °F 57% 30.28 in 10.0 mi NNW 6.9 mph - N/A   Partly Cloudy
11:15 AM 41.0 °F 35.8 °F 28.4 °F 61% 30.28 in 10.0 mi NNW 8.1 mph - N/A   Partly Cloudy
11:35 AM 41.0 °F 35.2 °F 26.6 °F 57% 30.29 in 10.0 mi North 9.2 mph - N/A   Partly Cloudy
11:55 AM 41.0 °F 35.2 °F 26.6 °F 57% 30.28 in 10.0 mi NNW 9.2 mph - N/A   Scattered Clouds
12:15 PM 41.0 °F 35.8 °F 26.6 °F 57% 30.28 in 10.0 mi NNW 8.1 mph - N/A   Scattered Clouds
12:35 PM 41.0 °F 35.8 °F 28.4 °F 61% 30.28 in 10.0 mi North 8.1 mph - N/A   Scattered Clouds
12:55 PM 41.0 °F 36.4 °F 28.4 °F 61% 30.28 in 10.0 mi NNW 6.9 mph - N/A   Partly Cloudy
1:15 PM 41.0 °F 35.8 °F 28.4 °F 61% 30.27 in 10.0 mi NNW 8.1 mph - N/A   Clear
1:35 PM 41.0 °F 35.8 °F 30.2 °F 65% 30.27 in 10.0 mi North 8.1 mph - N/A   Clear
1:55 PM 41.0 °F 35.2 °F 28.4 °F 61% 30.27 in 10.0 mi North 9.2 mph - N/A   Scattered Clouds
2:15 PM 41.0 °F 35.2 °F 28.4 °F 61% 30.27 in 10.0 mi North 9.2 mph - N/A   Partly Cloudy
2:35 PM 41.0 °F 35.8 °F 28.4 °F 61% 30.26 in 10.0 mi North 8.1 mph - N/A   Clear
2:55 PM 41.0 °F 34.7 °F 28.4 °F 61% 30.26 in 10.0 mi North 10.4 mph - N/A   Clear
3:15 PM 41.0 °F 35.8 °F 28.4 °F 61% 30.26 in 10.0 mi NNW 8.1 mph - N/A   Clear
3:35 PM 41.0 °F 35.8 °F 30.2 °F 65% 30.26 in 10.0 mi North 8.1 mph - N/A   Clear
3:55 PM 41.0 °F 35.8 °F 28.4 °F 61% 30.26 in 10.0 mi NNW 8.1 mph - N/A   Clear
4:15 PM 41.0 °F 34.7 °F 24.8 °F 53% 30.26 in 10.0 mi North 10.4 mph - N/A   Partly Cloudy
4:35 PM 41.0 °F 35.2 °F 26.6 °F 57% 30.26 in 10.0 mi North 9.2 mph - N/A   Scattered Clouds
4:55 PM 41.0 °F 35.8 °F 26.6 °F 57% 30.25 in 10.0 mi North 8.1 mph - N/A   Clear
5:15 PM 39.2 °F 35.0 °F 26.6 °F 61% 30.25 in 9.0 mi NNW 5.8 mph - N/A   Mostly Cloudy
5:35 PM 39.2 °F 35.9 °F 24.8 °F 56% 30.25 in 8.0 mi NNW 4.6 mph - N/A   Mostly Cloudy
5:55 PM 39.2 °F 35.9 °F 24.8 °F 56% 30.25 in 10.0 mi North 4.6 mph - N/A   Mostly Cloudy
6:15 PM 37.4 °F - 26.6 °F 65% 30.25 in 10.0 mi Calm Calm - N/A   Mostly Cloudy
6:35 PM 37.4 °F - 26.6 °F 65% 30.24 in 10.0 mi Calm Calm - N/A   Clear
6:55 PM 35.6 °F - 26.6 °F 70% 30.24 in 10.0 mi Calm Calm - N/A   Partly Cloudy
7:15 PM 35.6 °F - 28.4 °F 75% 30.24 in 10.0 mi Calm Calm - N/A   Scattered Clouds
7:35 PM 35.6 °F - 28.4 °F 75% 30.25 in 10.0 mi Calm Calm - N/A   Overcast
7:55 PM 37.4 °F - 28.4 °F 70% 30.24 in 10.0 mi Calm Calm - N/A   Overcast
8:15 PM 37.4 °F - 30.2 °F 75% 30.24 in 10.0 mi Calm Calm - N/A   Overcast
8:35 PM 35.6 °F - 30.2 °F 81% 30.24 in 10.0 mi Calm Calm - N/A   Mostly Cloudy
8:55 PM 35.6 °F - 30.2 °F 81% 30.25 in 10.0 mi Calm Calm - N/A   Mostly Cloudy
9:15 PM 35.6 °F - 30.2 °F 81% 30.25 in 10.0 mi Calm Calm - N/A   Overcast
9:35 PM 35.6 °F - 32.0 °F 87% 30.24 in 10.0 mi Calm Calm - N/A   Mostly Cloudy
9:55 PM 35.6 °F - 32.0 °F 87% 30.24 in 10.0 mi Calm Calm - N/A   Mostly Cloudy
10:15 PM 35.6 °F - 32.0 °F 87% 30.24 in 10.0 mi Calm Calm - N/A   Overcast
10:35 PM 35.6 °F - 32.0 °F 87% 30.24 in 10.0 mi Calm Calm - N/A   Mostly Cloudy
10:55 PM 35.6 °F - 32.0 °F 87% 30.23 in 10.0 mi Calm Calm - N/A   Mostly Cloudy
11:15 PM 33.8 °F - 30.2 °F 87% 30.23 in 10.0 mi Calm Calm - N/A   Partly Cloudy
11:35 PM 32.0 °F - 30.2 °F 93% 30.23 in 10.0 mi Calm Calm - N/A   Scattered Clouds
11:55 PM 33.8 °F - 30.2 °F 87% 30.23 in 10.0 mi Calm Calm - N/A   Scattered Clouds